[ hide orbit diagram ]
For accurate long-term ephemerides, please instead use our Horizons system.This orbit viewer was implemented using two-body methods, and hence should not be used for determining accurate long-term trajectories (over several years or decades) or planetary encounter circumstances.
Orbital Elements at Epoch 2459000.5 (2020-May-31.0) TDB
Reference: JPL 17 (heliocentric ecliptic J2000)
Element | Value | Uncertainty (1-sigma) | Units |
e | .09279264844518174 | 5.0734e-08 | |
a | 3.068832117112702 | 2.4117e-08 | au |
q | 2.78406705733218 | 1.5695e-07 | au |
i | 2.606037573487477 | 4.6663e-06 | deg |
node | 72.17764488075315 | 0.00012482 | deg |
peri | 267.6466982465058 | 0.00012734 | deg |
M | 184.298613226786 | 2.6656e-05 | deg |
tp | 2459958.864705895631 (2023-Jan-14.36470590) | 0.00014955 | TDB |
period | 1963.623056474503 5.38 | 2.3147e-05 6.337e-08 | d yr |
n | .1833345757542415 | 2.1611e-09 | deg/d |
Q | 3.353597176893224 | 2.6355e-08 | au |
|
| | Orbit Determination Parameters
Additional Information
|
[ show covariance matrix ]
Physical Parameter Table
Parameter |
Symbol |
Value |
Units |
Sigma |
Reference |
Notes |
absolute magnitude |
H |
15.0 |
|
n/a |
MPO432619 |
|
|
109849 (2001 RZ130) Discovered 2001-Sep-12 by LINEAR at Socorro |
Reference: 20051019/Numbers.arc | Last Updated: 2005-10-26 |
|
[ show close-approach data ]
|